Lanai City, HI

12:18 PM HST on September 29, 2016 (GMT -1000)
Lanai City

Weather History for PHNY - November, 2013

Change the Weather History Date:

Tuesday, November 12, 2013

  Actual Average Record
Temperature  
Mean Temperature 70 °F -  
Max Temperature 77 °F 81 °F 86 °F (1989)
Min Temperature 63 °F 63 °F 59 °F (1993)
Cooling Degree Days 5    
Growing Degree Days 20 (Base 50)    
Moisture  
Dew Point 58 °F    
Average Humidity 69    
Maximum Humidity 84    
Minimum Humidity 48    
Precipitation  
Precipitation 0.00 in - - ()
Sea Level Pressure  
Sea Level Pressure 29.96 in    
Wind  
Wind Speed 10 mph (NE)    
Max Wind Speed 15 mph    
Max Gust Speed 17 mph    
Visibility 10 miles    
Events      
Averages and records for this station are not official NWS values.
T = Trace of Precipitation, MM = Missing Value Source: NWS Daily Summary

Daily Weather History Graph

Daily Weather History Graph

Search for Another Location

Airport or City:

Trip Planner

Search our weather history database for the weather conditions in past years. The results will help you decide how hot, cold, wet, or windy it might be!

Date:

Astronomy

Nov. 12, 2013 Rise Set
Actual Time 6:36 AM HST 5:47 PM HST
Civil Twilight 6:13 AM HST 6:10 PM HST
Nautical Twilight 5:46 AM HST 6:37 PM HST
Astronomical Twilight 5:19 AM HST 7:03 PM HST
Moon 2:36 PM HST (11/12) 2:13 AM HST (11/12)
Length of Visible Light 11h 57m
Length of Day
11h 11m
Waxing Gibbous, 78% of the Moon is Illuminated
Nov 12
Waxing Gibbous
Nov 17
Full
Nov 25
Last Quarter
Dec 2
New
Dec 9
First Quarter

Hourly Weather History & Observations

Time (HST) Temp. Dew Point Humidity Pressure Visibility Wind Dir Wind Speed Gust Speed Precip Events Conditions
12:56 AM 64.9 °F 57.9 °F 78% 29.94 in 10.0 mi East 9.2 mph - N/A   Clear
1:56 AM 63.9 °F 56.8 °F 78% 29.94 in 10.0 mi East 5.8 mph - N/A   Clear
2:56 AM 63.9 °F 57.9 °F 81% 29.92 in 10.0 mi ENE 8.1 mph - N/A   Clear
3:56 AM 63.0 °F 57.9 °F 84% 29.93 in 10.0 mi NE 9.2 mph - N/A   Clear
4:56 AM 63.9 °F 57.9 °F 81% 29.94 in 10.0 mi NE 10.4 mph - N/A   Clear
5:56 AM 63.9 °F 59.0 °F 84% 29.96 in 10.0 mi NE 6.9 mph - N/A   Clear
6:56 AM 63.0 °F 57.9 °F 84% 29.99 in 10.0 mi NE 9.2 mph - N/A   Clear
7:56 AM 70.0 °F 59.9 °F 70% 30.00 in 10.0 mi ENE 6.9 mph - N/A   Clear
8:56 AM 73.9 °F 59.0 °F 59% 30.00 in 8.0 mi ENE 9.2 mph - N/A   Clear
9:56 AM 74.8 °F 57.9 °F 55% 30.00 in 10.0 mi NE 12.7 mph - N/A   Partly Cloudy
10:56 AM 75.9 °F 57.9 °F 54% 29.99 in 10.0 mi North 6.9 mph - N/A   Mostly Cloudy
11:56 AM 75.9 °F 56.8 °F 51% 29.97 in 10.0 mi NNE 10.4 mph - N/A   Mostly Cloudy
12:56 PM 77.9 °F 56.8 °F 48% 29.93 in 10.0 mi NE 12.7 mph - N/A   Mostly Cloudy
1:56 PM 75.9 °F 55.9 °F 50% 29.92 in 10.0 mi NE 12.7 mph - N/A   Clear
2:56 PM 77.0 °F 56.8 °F 50% 29.90 in 10.0 mi NNE 15.0 mph - N/A   Clear
3:56 PM 72.0 °F 55.9 °F 57% 29.93 in 10.0 mi NE 11.5 mph - N/A   Overcast
4:56 PM 70.0 °F 55.9 °F 61% 29.94 in 10.0 mi NE 12.7 mph - N/A   Partly Cloudy
5:56 PM 68.0 °F 54.9 °F 63% 29.96 in 10.0 mi NE 13.8 mph 17.3 mph N/A   Clear
6:56 PM 66.9 °F 56.8 °F 70% 29.98 in 10.0 mi NE 12.7 mph - N/A   Clear
7:56 PM 66.9 °F 56.8 °F 70% 29.98 in 10.0 mi NE 13.8 mph - N/A   Clear
8:56 PM 66.9 °F 59.9 °F 78% 29.99 in 10.0 mi NE 12.7 mph - N/A   Clear
9:56 PM 65.8 °F 59.9 °F 81% 29.99 in 10.0 mi NE 13.8 mph - N/A   Clear
10:56 PM 65.8 °F 59.9 °F 81% 29.98 in 10.0 mi NE 13.8 mph - N/A   Clear
11:56 PM 64.9 °F 59.9 °F 84% 29.97 in 10.0 mi NE 15.0 mph - N/A   Clear